• In Netherlands
  • List of Countries
  • For 7 days
  • Water Temperature
  • Satellite Maps
  • Weather Map
  • Weather Widgets
  • user-avatar
    Login

    Hourly Weather Herāt

    Today, 23 November, Thursday

    Time Temperature Precipitation Wind Pressure Humidity
    00:00 +13°C° 0 mm 5 mps 677 mmHg 30%
    01:00 +13°C° 0 mm 5 mps 677 mmHg 30%
    02:00 +13°C° 0 mm 5 mps 677 mmHg 30%
    03:00 +12°C° 0 mm 4 mps 677 mmHg 30%
    04:00 +12°C° 0 mm 4 mps 677 mmHg 30%
    05:00 +12°C° 0 mm 4 mps 677 mmHg 29%
    06:00 +12°C° 0 mm 4 mps 677 mmHg 29%
    07:00 +12°C° 0 mm 4 mps 677 mmHg 29%
    08:00 +14°C° 0 mm 4 mps 677 mmHg 25%
    09:00 +17°C° 0 mm 4 mps 678 mmHg 20%
    10:00 +19°C° 0 mm 5 mps 678 mmHg 16%
    11:00 +20°C° 0 mm 5 mps 678 mmHg 15%
    12:00 +21°C° 0 mm 5 mps 678 mmHg 15%
    13:00 +22°C° 0 mm 6 mps 677 mmHg 14%
    14:00 +21°C° 0 mm 5 mps 677 mmHg 14%
    15:00 +21°C° 0 mm 5 mps 677 mmHg 14%
    16:00 +21°C° 0 mm 5 mps 676 mmHg 14%
    17:00 +20°C° 0 mm 5 mps 677 mmHg 15%
    18:00 +19°C° 0 mm 4 mps 677 mmHg 16%
    19:00 +18°C° 0 mm 4 mps 677 mmHg 17%
    20:00 +17°C° 0 mm 4 mps 677 mmHg 17%
    21:00 +17°C° 0 mm 4 mps 677 mmHg 17%
    22:00 +16°C° 0 mm 5 mps 677 mmHg 18%
    23:00 +17°C° 0 mm 4 mps 677 mmHg 18%

    Tomorrow, 24 November, Friday

    Time Temperature Precipitation Wind Pressure Humidity
    00:00 +17°C° 0 mm 4 mps 677 mmHg 18%
    01:00 +17°C° 0 mm 4 mps 677 mmHg 18%
    02:00 +15°C° 0 mm 4 mps 677 mmHg 18%
    03:00 +16°C° 0 mm 3 mps 677 mmHg 19%
    04:00 +14°C° 0 mm 3 mps 677 mmHg 20%
    05:00 +14°C° 0.1 mm 3 mps 677 mmHg 22%
    06:00 +15°C° 0.1 mm 2 mps 678 mmHg 24%
    07:00 +15°C° 0.1 mm 2 mps 678 mmHg 26%
    08:00 +16°C° 0.2 mm 3 mps 679 mmHg 27%
    09:00 +17°C° 0.2 mm 4 mps 679 mmHg 27%
    10:00 +19°C° 0.2 mm 5 mps 680 mmHg 27%
    11:00 +19°C° 0.1 mm 5 mps 679 mmHg 27%
    12:00 +20°C° 0.1 mm 6 mps 679 mmHg 27%
    13:00 +21°C° 0.1 mm 6 mps 679 mmHg 27%
    14:00 +21°C° 0 mm 5 mps 678 mmHg 26%
    15:00 +20°C° 0 mm 5 mps 678 mmHg 25%
    16:00 +20°C° 0 mm 5 mps 677 mmHg 24%
    17:00 +19°C° 0 mm 4 mps 677 mmHg 28%
    18:00 +17°C° 0 mm 4 mps 677 mmHg 31%
    19:00 +16°C° 0 mm 3 mps 677 mmHg 34%
    20:00 +16°C° 0 mm 3 mps 677 mmHg 34%
    21:00 +14°C° 0 mm 3 mps 677 mmHg 35%
    22:00 +14°C° 0 mm 3 mps 677 mmHg 35%
    23:00 +14°C° 0 mm 3 mps 677 mmHg 36%

    Day after tomorrow, 25 November, Saturday

    Time Temperature Precipitation Wind Pressure Humidity
    00:00 +13°C° 0 mm 3 mps 677 mmHg 37%
    01:00 +13°C° 0 mm 3 mps 676 mmHg 38%
    02:00 +13°C° 0.2 mm 3 mps 676 mmHg 42%
    03:00 +12°C° 0.2 mm 3 mps 676 mmHg 46%
    04:00 +12°C° 0.2 mm 3 mps 676 mmHg 50%
    05:00 +13°C° 0.3 mm 2 mps 677 mmHg 53%
    06:00 +12°C° 0.3 mm 2 mps 677 mmHg 57%
    07:00 +12°C° 0.3 mm 2 mps 678 mmHg 60%
    08:00 +13°C° 0.2 mm 2 mps 678 mmHg 56%
    09:00 +13°C° 0.2 mm 3 mps 679 mmHg 51%
    10:00 +14°C° 0.2 mm 4 mps 680 mmHg 47%
    11:00 +15°C° 0.1 mm 4 mps 680 mmHg 41%
    12:00 +16°C° 0.1 mm 5 mps 680 mmHg 36%
    13:00 +16°C° 0.1 mm 5 mps 680 mmHg 31%
    14:00 +16°C° 0 mm 6 mps 681 mmHg 29%
    15:00 +15°C° 0 mm 6 mps 681 mmHg 27%
    16:00 +15°C° 0 mm 6 mps 681 mmHg 26%
    17:00 +14°C° 0 mm 5 mps 681 mmHg 29%
    18:00 +12°C° 0 mm 4 mps 682 mmHg 32%
    19:00 +12°C° 0 mm 2 mps 682 mmHg 35%
    20:00 +10°C° 0 mm 2 mps 683 mmHg 36%
    21:00 +10°C° 0 mm 2 mps 683 mmHg 37%
    22:00 +9°C° 0 mm 2 mps 683 mmHg 37%
    23:00 +9°C° 0 mm 2 mps 683 mmHg 35%

    26 November, Sunday

    Time Temperature Precipitation Wind Pressure Humidity
    00:00 +8°C° 0 mm 2 mps 683 mmHg 33%
    01:00 +8°C° 0 mm 2 mps 683 mmHg 30%
    02:00 +7°C° 0 mm 2 mps 683 mmHg 31%
    03:00 +7°C° 0 mm 2 mps 683 mmHg 32%
    04:00 +7°C° 0 mm 2 mps 683 mmHg 33%
    05:00 +7°C° 0 mm 2 mps 684 mmHg 34%
    06:00 +6°C° 0 mm 2 mps 684 mmHg 34%
    07:00 +6°C° 0 mm 2 mps 685 mmHg 34%
    08:00 +8°C° 0 mm 2 mps 685 mmHg 30%
    09:00 +9°C° 0 mm 2 mps 686 mmHg 26%
    10:00 +12°C° 0 mm 2 mps 686 mmHg 22%
    11:00 +13°C° 0 mm 2 mps 686 mmHg 21%
    12:00 +13°C° 0 mm 2 mps 685 mmHg 21%
    13:00 +14°C° 0 mm 2 mps 685 mmHg 20%
    14:00 +14°C° 0 mm 2 mps 685 mmHg 22%
    15:00 +13°C° 0 mm 2 mps 685 mmHg 24%
    16:00 +12°C° 0 mm 3 mps 685 mmHg 25%
    17:00 +11°C° 0 mm 3 mps 685 mmHg 31%
    18:00 +10°C° 0 mm 3 mps 685 mmHg 37%
    19:00 +9°C° 0 mm 3 mps 685 mmHg 43%
    20:00 +9°C° 0 mm 2 mps 685 mmHg 45%
    21:00 +8°C° 0 mm 2 mps 684 mmHg 47%
    22:00 +8°C° 0 mm 2 mps 684 mmHg 49%
    23:00 +7°C° 0 mm 2 mps 684 mmHg 50%

    27 November, Monday

    Time Temperature Precipitation Wind Pressure Humidity
    00:00 +7°C° 0 mm 2 mps 684 mmHg 52%
    01:00 +7°C° 0 mm 2 mps 683 mmHg 54%
    02:00 +6°C° 0 mm 2 mps 683 mmHg 54%
    03:00 +6°C° 0 mm 2 mps 683 mmHg 54%
    04:00 +6°C° 0 mm 2 mps 683 mmHg 54%
    05:00 +7°C° 0 mm 1 mps 683 mmHg 53%
    06:00 +7°C° 0 mm 1 mps 683 mmHg 52%
    07:00 +7°C° 0 mm 1 mps 683 mmHg 51%
    08:00 +8°C° 0 mm 1 mps 683 mmHg 45%
    09:00 +10°C° 0 mm 1 mps 684 mmHg 39%
    10:00 +12°C° 0 mm 1 mps 684 mmHg 32%
    11:00 +13°C° 0 mm 2 mps 684 mmHg 30%
    12:00 +14°C° 0 mm 2 mps 683 mmHg 28%
    13:00 +14°C° 0 mm 2 mps 683 mmHg 25%
    14:00 +14°C° 0 mm 2 mps 682 mmHg 27%
    15:00 +13°C° 0 mm 3 mps 682 mmHg 28%
    16:00 +12°C° 0 mm 3 mps 682 mmHg 30%
    17:00 +11°C° 0 mm 3 mps 682 mmHg 34%
    18:00 +10°C° 0 mm 2 mps 683 mmHg 39%
    19:00 +9°C° 0 mm 2 mps 683 mmHg 43%
    20:00 +9°C° 0 mm 2 mps 683 mmHg 44%
    21:00 +8°C° 0 mm 2 mps 683 mmHg 45%
    22:00 +8°C° 0 mm 2 mps 683 mmHg 46%
    23:00 +8°C° 0 mm 2 mps 682 mmHg 46%

    28 November, Tuesday

    Time Temperature Precipitation Wind Pressure Humidity
    00:00 +7°C° 0 mm 2 mps 682 mmHg 46%
    01:00 +7°C° 0 mm 2 mps 682 mmHg 46%
    02:00 +7°C° 0 mm 2 mps 681 mmHg 45%
    03:00 +7°C° 0 mm 2 mps 681 mmHg 45%
    04:00 +7°C° 0 mm 2 mps 681 mmHg 44%
    05:00 +7°C° 0 mm 2 mps 681 mmHg 43%
    06:00 +8°C° 0 mm 1 mps 681 mmHg 42%
    07:00 +8°C° 0 mm 1 mps 682 mmHg 41%
    08:00 +9°C° 0 mm 1 mps 682 mmHg 38%
    09:00 +11°C° 0 mm 1 mps 682 mmHg 34%
    10:00 +12°C° 0 mm 1 mps 682 mmHg 31%
    11:00 +13°C° 0 mm 1 mps 682 mmHg 29%
    12:00 +13°C° 0 mm 1 mps 682 mmHg 28%
    13:00 +14°C° 0 mm 1 mps 681 mmHg 27%
    14:00 +14°C° 0 mm 1 mps 681 mmHg 27%
    15:00 +14°C° 0 mm 2 mps 681 mmHg 28%
    16:00 +14°C° 0 mm 2 mps 681 mmHg 28%
    17:00 +13°C° 0 mm 1 mps 681 mmHg 30%
    18:00 +12°C° 0 mm 1 mps 681 mmHg 33%
    19:00 +11°C° 0 mm 1 mps 681 mmHg 35%
    20:00 +11°C° 0 mm 1 mps 681 mmHg 37%
    21:00 +10°C° 0 mm 1 mps 681 mmHg 38%
    22:00 +9°C° 0 mm 1 mps 680 mmHg 40%
    23:00 +9°C° 0 mm 1 mps 680 mmHg 41%
    Show more